Date,TemperatureHighF,TemperatureAvgF,TemperatureLowF,DewpointHighF,DewpointAvgF,DewpointLowF,HumidityHigh,HumidityAvg,HumidityLow,PressureMaxIn,PressureMinIn,WindSpeedMaxMPH,WindSpeedAvgMPH,GustSpeedMaxMPH,PrecipitationSumIn
2013-2-1,65,55,46,46,41,37,87,61,37,30.43,30.32,13,3,13,0.00
2013-2-2,69,58,46,54,49,43,93,75,46,30.35,30.19,15,4,15,0.00
2013-2-3,68,58,51,54,43,29,94,61,26,30.32,30.13,13,2,13,0.00
2013-2-4,63,55,48,55,49,38,97,81,57,30.14,29.96,16,4,17,0.02
2013-2-5,72,62,55,62,58,54,99,90,70,30.06,29.96,10,2,10,0.00
2013-2-6,65,60,55,62,58,54,99,94,82,30.14,29.96,19,6,20,0.34
2013-2-7,67,61,57,60,58,56,98,92,78,30.00,29.82,30,4,30,1.26
2013-2-8,69,60,54,61,56,50,99,89,69,30.20,29.99,17,5,18,0.01
2013-2-9,63,58,51,60,54,48,94,87,80,30.25,30.05,20,8,20,0.00
2013-2-10,78,71,62,73,69,60,97,91,82,30.06,29.90,23,9,31,0.11
2013-2-11,73,60,56,71,58,53,97,93,86,30.15,29.98,26,8,26,0.79
2013-2-12,72,61,55,70,60,52,99,96,89,30.08,29.76,24,8,24,0.13
2013-2-13,55,52,46,53,46,40,93,80,67,30.11,29.91,25,7,25,0.01
2013-2-14,59,50,42,42,40,32,92,70,37,30.19,30.09,10,2,10,0.00
2013-2-15,64,53,42,45,41,39,91,66,43,30.23,30.11,20,4,20,0.00
2013-2-16,52,48,43,42,30,21,78,53,33,30.37,30.22,25,8,26,0.00
2013-2-17,63,50,39,44,37,29,79,61,42,30.37,30.23,17,6,17,0.00
2013-2-18,67,60,49,64,53,42,90,80,70,30.25,29.98,26,9,27,0.01
2013-2-19,68,59,49,65,43,28,95,61,26,30.28,29.98,26,8,27,0.23
2013-2-20,57,51,44,39,32,27,64,49,36,30.28,30.03,23,9,24,0.00
2013-2-21,73,65,55,71,58,36,94,80,50,30.03,29.77,27,10,31,0.15
2013-2-22,73,62,54,71,56,48,95,80,58,30.02,29.88,21,6,21,0.82
2013-2-23,61,56,53,54,52,49,95,87,78,30.00,29.90,11,4,14,0.01
2013-2-24,67,58,48,60,53,45,97,86,71,30.01,29.75,23,7,27,1.44
2013-2-25,69,63,56,68,60,39,98,91,50,29.79,29.42,35,10,35,1.27
2013-2-26,58,52,46,47,40,36,77,63,50,29.96,29.63,29,11,29,0.00
2013-2-27,68,58,48,52,45,38,86,64,37,30.09,29.95,18,6,19,0.00
2013-2-28,55,48,45,40,35,31,76,61,49,30.20,30.09,18,6,18,0.00